Location: Eckley
(40.9930°N, 75.8630°W)
Time: 07:11:25
(UTC-04:00)

Daily predictions for brighter satellites

Satellite Brightness Start Highest point End
(mag) Time Altitude Azimuth Time Altitude Azimuth Time Altitude Azimuth
NOAA 12 4.3 19:42:28 10° SSE 19:47:47 81° WSW 19:53:07 10° NNW
H-2A R/B 3.6 19:44:20 10° SE 19:47:49 32° ENE 19:51:21 10° N
Spot 2 Rocket 4.1 19:43:48 10° SE 19:48:28 38° ENE 19:53:10 10° N
Tiangong 1 1.8 19:48:13 10° W 19:51:02 41° SSW 19:53:49 10° SE
Cosmos 1707 3.7 19:49:02 10° NNW 19:52:51 53° W 19:56:36 10° S
Abrixas 3.1 19:50:16 10° NW 19:52:58 38° NNE 19:55:39 10° E
Cosmos 2082 Rocket 3.2 19:49:10 10° N 19:54:01 28° NE 19:58:47 10° ESE
Meteor 1-24 Rocket 3.7 19:48:30 10° N 19:54:01 75° E 19:59:43 10° SSE
Cosmos 1812 Rocket 3.5 19:50:50 10° S 19:55:14 84° E 19:59:39 10° N
Cosmos 1758 4.3 19:53:15 10° SSE 19:56:34 26° E 19:59:55 10° NNE
Lacrosse 5 2.0 19:51:35 10° SW 19:56:40 86° NW 20:01:46 10° NE
Helios 1B rocket 3.9 19:54:04 10° NE 19:56:52 18° E 19:59:40 10° SE
Cosmos 990 Rocket 4.1 19:51:46 10° SSW 19:57:01 87° WNW 20:02:18 10° NNE
FREGAT/IRIS 3.2 19:58:19 10° S 20:01:21 62° W 20:04:24 10° NNW
Cosmos 1821 Rocket 4.2 19:55:49 10° S 20:02:13 82° W 20:08:35 10° N
Lacrosse 4 Rocket 3.4 20:00:40 10° WSW 20:04:17 31° NW 20:07:55 10° N
Cosmos 1953 3.1 20:00:58 10° SSE 20:04:31 30° E 20:08:06 10° NNE
Envisat 4.3 20:02:55 10° ESE 20:06:42 22° ENE 20:10:31 10° NNE
GP-B 4.2 20:04:41 10° SE 20:08:16 24° ENE 20:11:50 10° NNE
USA 186 2.6 20:08:21 15° E 20:08:44 16° ENE 20:10:14 10° NNE
Helios 1A 3.9 20:07:04 10° SE 20:10:39 29° ENE 20:14:16 10° N
CZ-3 Stage 3 4.4 19:11:22 10° WSW 20:12:30 57° S 20:20:18 14° ESE
Cosmos 1271 Rocket 4.2 20:11:02 10° SE 20:13:51 19° E 20:16:41 10° NE
Resurs 01 Rocket 1.6 20:09:58 10° SSE 20:14:21 69° ENE 20:18:46 10° N
Cosmos 1125 Rocket 3.8 20:09:28 10° S 20:14:23 44° ESE 20:19:20 10° NNE
Cosmos 1766 3.6 20:12:14 10° SSW 20:16:05 70° W 20:19:59 10° N
Cosmos 1048 Rocket 4.5 20:13:04 10° N 20:17:54 40° ENE 20:22:08 13° SE
Cosmos 1605 Rocket 4.0 20:14:03 10° S 20:20:17 77° E 20:26:39 10° N
Geosat 4.2 20:15:31 10° NE 20:20:22 47° ESE 20:25:11 10° S
Cosmos-2242 3.9 20:19:00 10° SSE 20:22:33 27° E 20:26:08 10° NNE
Lacrosse 5 rocket 2.8 20:21:41 10° NNW 20:24:48 21° NNE 20:26:41 15° ENE
Fregat R/B Cluster 11 4.4 20:20:10 10° SSW 20:27:00 59° ESE 20:30:25 10° NE
SeaSat 1 2.9 20:23:54 10° SSE 20:28:46 62° WSW 20:33:40 10° NNW
Cosmos 1674 3.3 20:26:31 10° N 20:30:01 35° ENE 20:31:54 21° SE
SAR-Lupe-4 3.7 20:31:34 16° SSE 20:34:15 54° ENE 20:37:45 10° N
Cosmos 2123 Rocket 4.4 20:28:13 10° NNW 20:34:30 70° W 20:40:43 10° S
RESURS DK-1 4.1 20:35:35 10° NW 20:39:16 32° WSW 20:42:57 10° S
Cosmos 2344 4.3 20:34:45 10° SW 20:42:18 60° NW 20:50:58 10° NNE
CZ-2D R/B 3.4 20:39:14 10° S 20:43:05 75° WSW 20:46:59 10° NNW
Cosmos 1802 Rocket 4.4 20:38:03 10° SSE 20:43:37 38° E 20:49:13 10° NNE
BREEZE-M DEB (TANK) 4.1 20:42:16 10° NNW 20:43:59 18° NNE 20:44:39 16° NE
Meteor 1-21 Rocket 4.2 20:38:23 10° N 20:44:14 75° E 20:50:08 10° SSE
Meteor 1-29 3.1 20:42:43 10° NNE 20:46:06 48° E 20:48:18 19° SSE
CZ-3B DEB 3.7 20:36:45 10° WSW 20:47:01 47° NW 20:51:51 10° NE
Cosmos 1805 3.9 20:44:16 10° SSW 20:48:06 57° W 20:51:57 10° N
Cosmos 1818 3.6 20:45:17 10° NW 20:50:45 79° WSW 20:54:41 19° SSE
GPS 2-05 Rocket1 4.0 20:48:08 10° SW 20:51:15 28° S 20:51:22 28° SSE
COSMOS 2487 2.3 20:48:32 10° NNW 20:52:07 73° ENE 20:53:15 40° SE
ALOS 4.2 20:48:26 10° SSW 20:52:32 30° W 20:56:41 10° NW
SAR-Lupe-1 3.9 20:51:15 27° SSE 20:53:06 82° ENE 20:56:42 10° N
Resurs 1-3 4.5 20:50:34 10° S 20:54:49 50° W 20:59:05 10° NNW
Cosmos 2061 Rocket 4.1 20:50:51 10° SSE 20:57:01 55° E 21:03:16 10° NNE
Cosmos 1269 Rocket 4.0 20:51:44 10° NNW 20:57:03 90° W 21:00:49 20° SSE
Meteor 1-4 Rocket 3.5 20:56:10 10° SSW 20:59:31 47° WNW 21:02:54 10° N
Timation 2 Rocket 3.9 20:55:47 10° NNW 21:02:07 75° ENE 21:05:25 29° SE
Cosmos 1833 Rocket 2.6 20:56:53 10° NNW 21:02:32 83° ENE 21:05:39 28° SSE
Cosmos 1470 2.6 21:00:38 14° S 21:04:04 77° E 21:08:03 10° N
Cosmos 1408 Rocket 3.6 21:00:18 10° N 21:04:47 83° W 21:07:46 21° S
Cosmos 2278 Rocket 3.9 21:03:04 10° WSW 21:08:09 33° WNW 21:13:17 10° N
Cosmos 1340 Rocket 2.6 21:07:44 10° N 21:11:47 74° E 21:12:09 67° SE
Cosmos 372 Rocket 4.1 21:06:55 10° SSW 21:12:00 73° WNW 21:17:10 10° NNE
CZ-4B DEB 2.9 21:12:02 66° WSW 21:12:03 66° W 21:15:09 10° NNW
Cosmos 1733 3.1 21:10:59 26° S 21:13:06 85° W 21:17:00 10° N
Cosmos 1459 Rocket 3.9 21:07:42 10° S 21:13:58 80° E 21:20:10 10° N
Cosmos 1842 Rocket 4.4 21:18:20 36° NE 21:18:20 36° NE 21:21:16 10° NNE
USA 215 3.1 21:10:49 10° NE 21:17:20 67° SE 21:23:48 10° SW
ATLAS 5 CENTAUR R/B 1.7 21:14:36 10° SW 21:19:16 85° WNW 21:24:24 10° NE
Cosmos 2173 Rocket 3.9 21:13:33 10° S 21:19:43 87° E 21:26:01 10° N
Cosmos 158 Rocket 4.2 21:15:00 10° NNW 21:20:05 67° WSW 21:22:45 29° S
ISS -2.1 21:16:53 10° SW 21:18:24 25° SW 21:18:24 25° SW
Cosmos 2297 4.5 21:18:17 10° SW 21:23:51 53° WNW 21:29:28 10° NNE
Cosmos 2151 4.3 21:20:50 10° N 21:23:14 27° NNE 21:23:14 27° NNE
Cosmos 1867 4.4 21:21:05 10° SW 21:26:23 52° NW 21:31:45 10° NNE
Helios 1B rocket 4.0 21:28:30 10° N 21:32:18 36° WNW 21:36:04 10° SW
Meteor 1-11 4.2 21:31:05 10° N 21:36:37 61° ENE 21:36:37 61° ENE
Cosmos 494 Rocket 4.0 21:32:31 10° NNW 21:37:19 62° NE 21:37:19 62° NE
Cosmos 2082 Rocket 3.1 21:32:53 10° NW 21:38:17 45° WSW 21:41:10 25° SSW
Lacrosse 5 4.1 21:36:20 10° WNW 21:40:17 22° NNW 21:44:15 10° NNE
SPOT 5 3.6 21:45:02 46° NE 21:45:02 46° NE 21:49:21 10° N
Meteor 2-17 Rocket 4.4 21:40:14 23° S 21:44:16 85° W 21:50:27 10° N
Envisat 3.9 21:42:59 27° SSW 21:45:23 46° W 21:50:17 10° NNW
Cosmos 1939 Rocket 3.9 21:45:32 42° WSW 21:45:55 43° W 21:49:55 10° NNW
Meteor 1-16 Rocket 4.2 21:44:17 47° S 21:46:05 89° ESE 21:52:03 10° N
MetOp-A 4.2 21:50:03 65° NE 21:50:03 65° NE 21:54:53 10° N
USA 267 4.0 21:48:09 36° ENE 21:49:39 40° NNE 21:55:39 10° NW
ARGOS 3.8 21:51:33 43° NNE 21:51:33 43° NNE 21:55:36 10° N
H-2A R/B 3.5 21:52:51 26° NNE 21:52:51 26° NNE 21:55:46 10° N
Cosmos 2016 Rocket 4.1 21:47:02 20° SSW 21:51:31 74° W 21:57:41 10° N
Cosmos 1725 Rocket 3.8 21:59:08 77° S 21:59:39 88° E 22:05:53 10° N
Terra 4.2 22:04:46 14° NNE 22:04:46 14° NNE 22:05:34 10° NNE
ERS-1 Rocket 3.4 22:03:22 58° W 22:03:22 58° W 22:08:18 10° NNW
Lacrosse 5 rocket 3.2 22:00:31 10° NW 22:02:25 26° WNW 22:02:25 26° WNW
Tsikada Rocket 4.0 22:11:22 10° N 22:17:28 74° W 22:17:28 74° W
Cosmos 2369 Rocket 4.5 22:34:54 14° NNE 22:34:54 14° NNE 22:35:40 10° NNE
USA 215 4.2 22:54:02 10° NE 23:00:06 42° NNW 23:06:09 10° W
H-2A R/B 4.5 23:33:28 19° NW 23:33:28 19° NW 23:35:12 10° NNW
